Tracking 19908 objects as of 19-Oct-2019
HD Live streaming from Space Station
objects crossing your sky now

DELTA 1 DEB

Track DELTA 1 DEB now!
10-day predictions


NORAD ID: 37662
Int'l Code: 1978-026JZ
Perigee: 828.8 km
Apogee: 880.4 km
Inclination: 98.9 °
Period: 101.9 minutes
Semi major axis: 7225 km
RCS: 0.0109 m2 (small)
Launch date: March 5, 1978
Source: United States (US)
Launch site: AIR FORCE WESTERN TEST RANGE (AFWTR)

Note: This is SATELLITE DEBRIS
aabbcc
Your satellite tracking list
Your tracking list is empty




NASA's NSSDC Master Catalog

Two Line Element Set (TLE):
1 37662U 78026JZ  19287.15405461  .00000067  00000-0  58722-4 0  9991
2 37662  98.8687 257.3061 0035757 159.5170 200.7445 14.13484541891051
Source of the keplerian elements: AFSPC